Vero Beach, FL

4:24 PM EDT on April 28, 2017 (GMT -0400)
Vero Beach Municipal

Weather History for KVRB - July, 2013

Change the Weather History Date:

Tuesday, July 2, 2013

  Actual Average Record
Temperature  
Mean Temperature 81 °F 81 °F  
Max Temperature 88 °F 89 °F 95 °F (1986)
Min Temperature 74 °F 73 °F 66 °F (1981)
Degree Days  
Heating Degree Days 0 0  
Month to date heating degree days 0 0  
Since 1 June heating degree days 0 0  
Since 1 July heating degree days 0 0  
Cooling Degree Days 16 16  
Month to date cooling degree days 33 32  
Year to date cooling degree days 1445 1294  
Since 1 June cooling degree days 538 488  
Growing Degree Days 30 (Base 50)    
Moisture  
Dew Point 75 °F    
Average Humidity 88    
Maximum Humidity 100    
Minimum Humidity 75    
Precipitation  
Precipitation T in 0.20 in 1.55 in (1990)
Month to date precipitation 0.92 0.40  
Year to date precipitation 21.63 22.44  
Sea Level Pressure  
Sea Level Pressure 30.07 in    
Wind  
Wind Speed 6 mph (SE)    
Max Wind Speed 18 mph    
Max Gust Speed 24 mph    
Visibility 10 miles    
Events Rain , Thunderstorm    
T = Trace of Precipitation, MM = Missing Value Source: NWS Daily Summary

Daily Weather History Graph

Daily Weather History Graph

Search for Another Location

Airport or City:

Trip Planner

Search our weather history database for the weather conditions in past years. The results will help you decide how hot, cold, wet, or windy it might be!

Date:

Astronomy

Jul. 02, 2013 Rise Set
Actual Time 6:30 AM EDT 8:21 PM EDT
Civil Twilight 6:03 AM EDT 8:47 PM EDT
Nautical Twilight 5:31 AM EDT 9:19 PM EDT
Astronomical Twilight 4:57 AM EDT 9:53 PM EDT
Moon 2:17 AM EDT (7/2) 3:45 PM EDT (7/2)
Length of Visible Light 14h 44m
Length of Day
13h 51m
Waning Crescent, 26% of the Moon is Illuminated
Jul 2
Waning Crescent
Jul 8
New
Jul 15
First Quarter
Jul 22
Full
Jul 29
Last Quarter

Hourly Weather History & Observations

Time (EDT) Temp. Heat Index Dew Point Humidity Pressure Visibility Wind Dir Wind Speed Gust Speed Precip Events Conditions
12:53 AM 73.9 °F - 73.0 °F 97% 30.05 in 10.0 mi ESE 3.5 mph - N/A   Partly Cloudy
1:53 AM 73.9 °F - 73.0 °F 97% 30.04 in 10.0 mi SE 4.6 mph - N/A   Partly Cloudy
2:53 AM 73.9 °F - 73.0 °F 97% 30.01 in 10.0 mi ESE 4.6 mph - N/A   Clear
3:53 AM 75.0 °F - 73.9 °F 96% 30.00 in 10.0 mi ESE 5.8 mph - N/A   Clear
4:53 AM 77.0 °F - 75.9 °F 96% 30.00 in 10.0 mi ESE 6.9 mph - N/A   Clear
5:53 AM 77.0 °F - 75.9 °F 96% 30.02 in 10.0 mi SE 4.6 mph - N/A   Clear
6:53 AM 78.1 °F - 77.0 °F 96% 30.04 in 10.0 mi South 4.6 mph - N/A   Clear
7:53 AM 79.0 °F - 77.0 °F 94% 30.06 in 10.0 mi SSE 3.5 mph - N/A   Clear
8:53 AM 81.0 °F 88.6 °F 78.1 °F 91% 30.06 in 10.0 mi SSE 5.8 mph - N/A   Scattered Clouds
10:53 AM 82.9 °F 91.8 °F 77.0 °F 82% 30.08 in 8.0 mi SSE 16.1 mph 23.0 mph N/A   Mostly Cloudy
11:53 AM 86.0 °F 98.3 °F 78.1 °F 77% 30.07 in 10.0 mi SE 15.0 mph - 0.00 in   Clear
12:53 PM 86.0 °F 96.9 °F 77.0 °F 74% 30.08 in 10.0 mi SE 19.6 mph 24.2 mph N/A   Partly Cloudy
1:53 PM 82.9 °F 90.8 °F 75.9 °F 79% 30.09 in 10.0 mi SSE 8.1 mph - 0.00 in   Mostly Cloudy
2:13 PM 80.6 °F 85.4 °F 73.4 °F 79% 30.10 in 10.0 mi WSW 15.0 mph 19.6 mph N/A Thunderstorm Mostly Cloudy
2:28 PM 78.8 °F - 73.4 °F 83% 30.11 in 10.0 mi WSW 12.7 mph - N/A   Mostly Cloudy
2:53 PM 75.9 °F - 73.9 °F 94% 30.10 in 10.0 mi WNW 8.1 mph - 0.00 in Rain Light Rain
3:00 PM 75.2 °F - 73.4 °F 94% 30.10 in 10.0 mi WNW 8.1 mph - 0.00 in Rain Light Rain
3:53 PM 77.0 °F - 73.9 °F 90% 30.08 in 10.0 mi NW 4.6 mph - 0.00 in   Mostly Cloudy
4:26 PM 78.8 °F - 73.4 °F 83% 30.07 in 10.0 mi Calm Calm - N/A Thunderstorm Clear
4:36 PM 78.8 °F - 73.4 °F 83% 30.07 in 10.0 mi Calm Calm - N/A Thunderstorm Clear
4:53 PM 79.0 °F - 73.9 °F 84% 30.07 in 10.0 mi Calm Calm - N/A Thunderstorm Clear
5:06 PM 78.8 °F - 73.4 °F 83% 30.07 in 10.0 mi SSW 8.1 mph - N/A   Mostly Cloudy
5:53 PM 77.0 °F - 73.9 °F 90% 30.06 in 10.0 mi Calm Calm - 0.00 in   Clear
6:53 PM 77.0 °F - 73.9 °F 90% 30.09 in 10.0 mi North 3.5 mph - N/A   Clear
7:53 PM 75.9 °F - 73.9 °F 94% 30.11 in 10.0 mi ENE 3.5 mph - N/A   Clear
8:53 PM 75.0 °F - 73.0 °F 94% 30.12 in 10.0 mi Calm Calm - N/A   Clear
9:53 PM 75.0 °F - 73.0 °F 94% 30.11 in 10.0 mi NNE 3.5 mph - N/A   Clear
10:53 PM 73.9 °F - 73.0 °F 97% 30.12 in 10.0 mi Calm Calm - N/A   Clear
11:53 PM 75.0 °F - 73.0 °F 94% 30.11 in 10.0 mi Calm Calm - N/A   Clear